When you browse on this site, cookies collect data to enhance your experience and personalize the content and advertising you see.
Visit our Privacy Policy to learn more. By continuing to use the site, you agree to this use of cookies and data.
  • En España
  • Lista de países
  • Para 7 días
  • Temperatura del agua
  • Mapa Satelital
  • El tiempo en el mapa
  • Informadores
  • user-avatar
    Iniciar sesión

    Tiempo cada hora Kruhlyk

    Hoy, 24 Mayo, Viernes

    Tiempo Temperatura Precipitaciones Viento Presión Humedad
    00:00 +16°C° 0 mm 2 mps 743 mmHg 81%
    01:00 +15°C° 0 mm 2 mps 743 mmHg 84%
    02:00 +15°C° 0 mm 1 mps 743 mmHg 87%
    03:00 +15°C° 0 mm 1 mps 743 mmHg 88%
    04:00 +15°C° 0 mm 1 mps 743 mmHg 88%
    05:00 +16°C° 0 mm 2 mps 743 mmHg 88%
    06:00 +18°C° 0 mm 2 mps 744 mmHg 82%
    07:00 +19°C° 0 mm 2 mps 744 mmHg 77%
    08:00 +21°C° 0 mm 3 mps 744 mmHg 71%
    09:00 +23°C° 0.4 mm 2 mps 744 mmHg 67%
    10:00 +24°C° 0.4 mm 2 mps 744 mmHg 62%
    11:00 +25°C° 0.4 mm 2 mps 744 mmHg 58%
    12:00 +26°C° 0.5 mm 2 mps 744 mmHg 56%
    13:00 +26°C° 0.5 mm 1 mps 743 mmHg 55%
    14:00 +26°C° 0.5 mm 1 mps 743 mmHg 53%
    15:00 +24°C° 0.1 mm 0 mps 743 mmHg 55%
    16:00 +24°C° 0.1 mm 0 mps 743 mmHg 58%
    17:00 +24°C° 0.1 mm 0 mps 743 mmHg 60%
    18:00 +24°C° 1.2 mm 1 mps 743 mmHg 67%
    19:00 +22°C° 1.2 mm 1 mps 743 mmHg 73%
    20:00 +19°C° 1.2 mm 2 mps 743 mmHg 79%
    21:00 +20°C° 1.3 mm 1 mps 743 mmHg 81%
    22:00 +19°C° 1.3 mm 1 mps 743 mmHg 83%
    23:00 +16°C° 1.3 mm 0 mps 743 mmHg 85%

    Mañana, 25 Mayo, Sábado

    Tiempo Temperatura Precipitaciones Viento Presión Humedad
    00:00 +16°C° 0 mm 0 mps 743 mmHg 86%
    01:00 +18°C° 0 mm 1 mps 743 mmHg 86%
    02:00 +18°C° 0 mm 1 mps 743 mmHg 86%
    03:00 +17°C° 0.1 mm 2 mps 743 mmHg 87%
    04:00 +17°C° 0.1 mm 2 mps 743 mmHg 88%
    05:00 +17°C° 0.1 mm 2 mps 743 mmHg 89%
    06:00 +17°C° 0.1 mm 2 mps 743 mmHg 87%
    07:00 +19°C° 0.1 mm 1 mps 743 mmHg 85%
    08:00 +20°C° 0.1 mm 1 mps 742 mmHg 84%
    09:00 +20°C° 0 mm 2 mps 742 mmHg 76%
    10:00 +23°C° 0 mm 2 mps 742 mmHg 67%
    11:00 +25°C° 0 mm 3 mps 742 mmHg 59%
    12:00 +25°C° 0.8 mm 3 mps 742 mmHg 60%
    13:00 +25°C° 0.8 mm 3 mps 742 mmHg 61%
    14:00 +25°C° 0.8 mm 3 mps 741 mmHg 61%
    15:00 +24°C° 0.7 mm 3 mps 741 mmHg 65%
    16:00 +24°C° 0.7 mm 3 mps 741 mmHg 68%
    17:00 +23°C° 0.7 mm 2 mps 741 mmHg 71%
    18:00 +21°C° 0.6 mm 2 mps 741 mmHg 74%
    19:00 +19°C° 0.6 mm 2 mps 741 mmHg 78%
    20:00 +19°C° 0.6 mm 1 mps 741 mmHg 81%
    21:00 +19°C° 0.2 mm 1 mps 741 mmHg 83%
    22:00 +18°C° 0.2 mm 1 mps 740 mmHg 84%
    23:00 +18°C° 0.2 mm 1 mps 740 mmHg 85%

    Pasado mañana, 26 Mayo, Domingo

    Tiempo Temperatura Precipitaciones Viento Presión Humedad
    00:00 +16°C° 0.1 mm 1 mps 740 mmHg 87%
    01:00 +16°C° 0.1 mm 2 mps 740 mmHg 88%
    02:00 +16°C° 0.1 mm 2 mps 740 mmHg 90%
    03:00 +16°C° 0.1 mm 2 mps 740 mmHg 91%
    04:00 +16°C° 0.1 mm 2 mps 740 mmHg 92%
    05:00 +16°C° 0.1 mm 2 mps 740 mmHg 92%
    06:00 +17°C° 0 mm 3 mps 741 mmHg 88%
    07:00 +19°C° 0 mm 3 mps 741 mmHg 84%
    08:00 +20°C° 0 mm 3 mps 741 mmHg 79%
    09:00 +21°C° 0.8 mm 4 mps 741 mmHg 75%
    10:00 +22°C° 0.8 mm 4 mps 741 mmHg 71%
    11:00 +23°C° 0.8 mm 5 mps 741 mmHg 67%
    12:00 +23°C° 0.7 mm 5 mps 742 mmHg 68%
    13:00 +23°C° 0.7 mm 5 mps 742 mmHg 68%
    14:00 +23°C° 0.7 mm 6 mps 742 mmHg 69%
    15:00 +23°C° 0.2 mm 5 mps 742 mmHg 70%
    16:00 +23°C° 0.2 mm 4 mps 743 mmHg 71%
    17:00 +23°C° 0.2 mm 4 mps 743 mmHg 72%
    18:00 +21°C° 0 mm 4 mps 743 mmHg 77%
    19:00 +19°C° 0 mm 3 mps 744 mmHg 82%
    20:00 +18°C° 0 mm 3 mps 744 mmHg 87%
    21:00 +17°C° 0 mm 3 mps 744 mmHg 89%
    22:00 +16°C° 0 mm 3 mps 745 mmHg 91%
    23:00 +16°C° 0 mm 3 mps 745 mmHg 93%

    27 Mayo, Lunes

    Tiempo Temperatura Precipitaciones Viento Presión Humedad
    00:00 +14°C° 0 mm 3 mps 746 mmHg 93%
    01:00 +15°C° 0 mm 2 mps 746 mmHg 93%
    02:00 +14°C° 0 mm 2 mps 746 mmHg 93%
    03:00 +15°C° 0 mm 2 mps 747 mmHg 92%
    04:00 +15°C° 0 mm 2 mps 747 mmHg 91%
    05:00 +15°C° 0 mm 2 mps 747 mmHg 90%
    06:00 +17°C° 0 mm 2 mps 748 mmHg 84%
    07:00 +19°C° 0 mm 2 mps 748 mmHg 77%
    08:00 +20°C° 0 mm 2 mps 748 mmHg 71%
    09:00 +21°C° 0 mm 2 mps 749 mmHg 66%
    10:00 +22°C° 0 mm 3 mps 749 mmHg 61%
    11:00 +25°C° 0 mm 3 mps 749 mmHg 56%
    12:00 +25°C° 0 mm 3 mps 749 mmHg 56%
    13:00 +25°C° 0 mm 4 mps 749 mmHg 55%
    14:00 +26°C° 0 mm 4 mps 749 mmHg 55%
    15:00 +26°C° 0.1 mm 4 mps 749 mmHg 59%
    16:00 +25°C° 0.1 mm 3 mps 749 mmHg 63%
    17:00 +25°C° 0.1 mm 3 mps 749 mmHg 66%
    18:00 +24°C° 0.1 mm 2 mps 749 mmHg 72%
    19:00 +21°C° 0.1 mm 2 mps 750 mmHg 77%
    20:00 +20°C° 0.1 mm 1 mps 750 mmHg 82%
    21:00 +20°C° 0 mm 1 mps 750 mmHg 82%
    22:00 +19°C° 0 mm 2 mps 750 mmHg 83%
    23:00 +18°C° 0 mm 2 mps 750 mmHg 83%

    28 Mayo, Martes

    Tiempo Temperatura Precipitaciones Viento Presión Humedad
    00:00 +18°C° 0 mm 2 mps 750 mmHg 83%
    01:00 +18°C° 0 mm 2 mps 750 mmHg 84%
    02:00 +17°C° 0 mm 3 mps 750 mmHg 84%
    03:00 +17°C° 0 mm 3 mps 751 mmHg 84%
    04:00 +18°C° 0 mm 3 mps 751 mmHg 84%
    05:00 +18°C° 0 mm 3 mps 751 mmHg 84%
    06:00 +20°C° 0 mm 3 mps 751 mmHg 80%
    07:00 +21°C° 0 mm 3 mps 751 mmHg 75%
    08:00 +24°C° 0 mm 3 mps 751 mmHg 71%
    09:00 +26°C° 0 mm 4 mps 751 mmHg 66%
    10:00 +27°C° 0 mm 4 mps 751 mmHg 61%
    11:00 +28°C° 0 mm 5 mps 751 mmHg 56%
    12:00 +28°C° 0 mm 5 mps 751 mmHg 56%
    13:00 +28°C° 0 mm 5 mps 751 mmHg 56%
    14:00 +29°C° 0 mm 5 mps 751 mmHg 56%
    15:00 +28°C° 0 mm 4 mps 750 mmHg 59%
    16:00 +28°C° 0 mm 4 mps 750 mmHg 62%
    17:00 +28°C° 0 mm 3 mps 750 mmHg 66%
    18:00 +26°C° 0 mm 3 mps 750 mmHg 70%
    19:00 +24°C° 0 mm 3 mps 750 mmHg 74%
    20:00 +22°C° 0 mm 3 mps 750 mmHg 79%
    21:00 +21°C° 0 mm 4 mps 750 mmHg 80%
    22:00 +20°C° 0 mm 4 mps 750 mmHg 81%
    23:00 +19°C° 0 mm 4 mps 750 mmHg 82%

    29 Mayo, Miércoles

    Tiempo Temperatura Precipitaciones Viento Presión Humedad
    00:00 +19°C° 0 mm 4 mps 750 mmHg 84%
    01:00 +18°C° 0 mm 3 mps 750 mmHg 86%
    02:00 +17°C° 0 mm 3 mps 750 mmHg 88%
    03:00 +18°C° 0 mm 4 mps 750 mmHg 87%
    04:00 +18°C° 0 mm 4 mps 750 mmHg 87%
    05:00 +18°C° 0 mm 4 mps 750 mmHg 87%
    06:00 +20°C° 0 mm 5 mps 750 mmHg 80%
    07:00 +22°C° 0 mm 6 mps 750 mmHg 73%
    08:00 +24°C° 0 mm 7 mps 750 mmHg 67%
    09:00 +26°C° 0 mm 7 mps 750 mmHg 63%
    10:00 +27°C° 0 mm 7 mps 750 mmHg 60%
    11:00 +28°C° 0 mm 7 mps 750 mmHg 57%
    12:00 +28°C° 0 mm 7 mps 749 mmHg 56%
    13:00 +29°C° 0 mm 6 mps 749 mmHg 56%
    14:00 +29°C° 0 mm 6 mps 749 mmHg 55%
    15:00 +29°C° 0 mm 5 mps 749 mmHg 59%
    16:00 +28°C° 0 mm 5 mps 749 mmHg 63%
    17:00 +28°C° 0 mm 4 mps 749 mmHg 67%
    18:00 +26°C° 0 mm 4 mps 749 mmHg 68%
    19:00 +25°C° 0 mm 4 mps 749 mmHg 69%
    20:00 +23°C° 0 mm 4 mps 749 mmHg 71%
    21:00 +22°C° 0.1 mm 4 mps 749 mmHg 73%
    22:00 +21°C° 0.1 mm 3 mps 749 mmHg 74%
    23:00 +21°C° 0.1 mm 3 mps 749 mmHg 76%
    Mostrar más